Time,TemperatureF,DewpointF,PressureIn,WindDirection,WindDirectionDegrees,WindSpeedMPH,WindSpeedGustMPH,Humidity,HourlyPrecipIn,Conditions,Clouds,dailyrainin,SolarRadiationWatts/m^2,SoftwareType,DateUTC
2013-05-23 00:02:00,26.0,18.0,24.56,SW,216,0.0,1.0,71,-99.99,,,0.00,0.000000,,2013-05-23 07:02:00,
2013-05-23 00:11:00,26.0,18.0,24.55,West,272,0.0,1.0,73,-99.99,,,0.00,0.000000,,2013-05-23 07:11:00,
2013-05-23 00:21:00,26.0,18.0,24.55,SW,217,1.0,2.0,73,-99.99,,,0.00,0.000000,,2013-05-23 07:21:00,
2013-05-23 00:31:00,25.0,17.0,24.55,South,180,0.0,1.0,71,-99.99,,,0.00,0.000000,,2013-05-23 07:31:00,
2013-05-23 00:42:00,25.0,17.0,24.55,South,180,0.0,1.0,71,-99.99,,,0.00,0.000000,,2013-05-23 07:42:00,
2013-05-23 00:59:00,25.0,17.0,24.55,SSW,206,0.0,0.0,70,-99.99,,,0.00,0.000000,,2013-05-23 07:59:00,
2013-05-23 01:11:00,25.0,16.0,24.55,WSW,246,0.0,0.0,70,-99.99,,,0.00,0.000000,,2013-05-23 08:11:00,
2013-05-23 01:21:00,25.0,16.0,24.54,WSW,256,0.0,1.0,70,-99.99,,,0.00,0.000000,,2013-05-23 08:21:00,
2013-05-23 01:31:00,24.0,16.0,24.55,South,182,0.0,1.0,71,-99.99,,,0.00,0.000000,,2013-05-23 08:31:00,
2013-05-23 01:41:00,24.0,16.0,24.55,South,182,0.0,1.0,71,-99.99,,,0.00,0.000000,,2013-05-23 08:41:00,
2013-05-23 01:51:00,23.0,15.0,24.53,North,-999,0.0,0.0,69,-99.99,,,0.00,0.000000,,2013-05-23 08:51:00,
2013-05-23 02:01:00,23.0,15.0,24.53,North,-999,0.0,0.0,69,-99.99,,,0.00,0.000000,,2013-05-23 09:01:00,
2013-05-23 02:11:00,23.0,15.0,24.53,SSW,205,0.0,0.0,70,-99.99,,,0.00,0.000000,,2013-05-23 09:11:00,
2013-05-23 02:21:00,23.0,15.0,24.54,North,-999,0.0,0.0,70,-99.99,,,0.00,0.000000,,2013-05-23 09:21:00,
2013-05-23 02:33:00,23.0,15.0,24.54,SW,234,0.0,1.0,71,-99.99,,,0.00,0.000000,,2013-05-23 09:33:00,
2013-05-23 02:42:00,23.0,15.0,24.53,SW,228,0.0,0.0,72,-99.99,,,0.00,0.000000,,2013-05-23 09:42:00,
2013-05-23 02:53:00,22.0,14.0,24.53,SSW,209,0.0,1.0,72,-99.99,,,0.00,0.000000,,2013-05-23 09:53:00,
2013-05-23 03:02:00,22.0,14.0,24.53,SSW,209,0.0,1.0,72,-99.99,,,0.00,0.000000,,2013-05-23 10:02:00,
2013-05-23 03:12:00,22.0,14.0,24.53,SSW,211,0.0,1.0,73,-99.99,,,0.00,0.000000,,2013-05-23 10:12:00,
2013-05-23 03:22:00,21.0,14.0,24.54,SSW,192,0.0,1.0,73,-99.99,,,0.00,0.000000,,2013-05-23 10:22:00,
2013-05-23 03:32:00,21.0,14.0,24.53,SSW,198,0.0,0.0,76,-99.99,,,0.00,0.000000,,2013-05-23 10:32:00,
2013-05-23 03:42:00,21.0,14.0,24.53,SSW,198,0.0,0.0,76,-99.99,,,0.00,0.000000,,2013-05-23 10:42:00,
2013-05-23 03:52:00,20.0,14.0,24.53,North,-999,0.0,0.0,77,-99.99,,,0.00,0.000000,,2013-05-23 10:52:00,
2013-05-23 04:02:00,20.0,14.0,24.53,North,-999,0.0,0.0,77,-99.99,,,0.00,0.000000,,2013-05-23 11:02:00,
2013-05-23 04:11:00,20.0,14.0,24.52,West,272,0.0,1.0,77,-99.99,,,0.00,0.000000,,2013-05-23 11:11:00,
2013-05-23 04:21:00,20.0,14.0,24.52,SSW,203,0.0,1.0,77,-99.99,,,0.00,0.000000,,2013-05-23 11:21:00,
2013-05-23 04:32:00,20.0,14.0,24.53,WSW,248,0.0,1.0,77,-99.99,,,0.00,0.000000,,2013-05-23 11:32:00,
2013-05-23 04:41:00,19.0,13.0,24.53,WSW,253,0.0,1.0,77,-99.99,,,0.00,0.000000,,2013-05-23 11:41:00,
2013-05-23 04:52:00,19.0,14.0,24.53,SW,219,0.0,0.0,78,-99.99,,,0.00,0.000000,,2013-05-23 11:52:00,
2013-05-23 05:01:00,19.0,13.0,24.53,North,-999,0.0,0.0,79,-99.99,,,0.00,0.000000,,2013-05-23 12:01:00,
2013-05-23 05:11:00,19.0,13.0,24.53,West,266,0.0,1.0,79,-99.99,,,0.00,0.000000,,2013-05-23 12:11:00,
2013-05-23 05:21:00,19.0,13.0,24.53,SW,227,0.0,0.0,78,-99.99,,,0.00,0.000000,,2013-05-23 12:21:00,
2013-05-23 05:32:00,18.0,13.0,24.52,SW,233,0.0,0.0,79,-99.99,,,0.00,0.000000,,2013-05-23 12:32:00,
2013-05-23 05:52:00,18.0,13.0,24.53,WSW,244,0.0,1.0,79,-99.99,,,0.00,0.000000,,2013-05-23 12:52:00,
2013-05-23 06:01:00,18.0,13.0,24.53,WNW,282,0.0,0.0,80,-99.99,,,0.00,0.000000,,2013-05-23 13:01:00,
2013-05-23 06:11:00,18.0,12.0,24.53,West,279,0.0,1.0,78,-99.99,,,0.00,0.000000,,2013-05-23 13:11:00,
2013-05-23 06:21:00,18.0,13.0,24.52,North,-999,0.0,0.0,80,-99.99,,,0.00,1.000000,,2013-05-23 13:21:00,
2013-05-23 06:31:00,17.0,12.0,24.53,West,268,0.0,1.0,81,-99.99,,,-99.99,4.000000,,2013-05-23 13:31:00,
2013-05-23 06:41:00,17.0,12.0,24.53,West,268,0.0,1.0,81,-99.99,,,-99.99,4.000000,,2013-05-23 13:41:00,
2013-05-23 06:52:00,18.0,13.0,24.53,South,178,0.0,1.0,81,-99.99,,,0.00,16.000000,,2013-05-23 13:52:00,
2013-05-23 07:01:00,18.0,13.0,24.53,South,178,0.0,1.0,81,-99.99,,,0.00,16.000000,,2013-05-23 14:01:00,
2013-05-23 07:11:00,18.0,13.0,24.53,North,-999,0.0,0.0,82,-99.99,,,0.00,39.000000,,2013-05-23 14:11:00,
2013-05-23 07:21:00,19.0,13.0,24.53,WNW,297,0.0,1.0,79,-99.99,,,0.00,95.000000,,2013-05-23 14:21:00,
2013-05-23 07:32:00,21.0,14.0,24.54,WNW,291,0.0,0.0,74,-99.99,,,-99.99,96.000000,,2013-05-23 14:32:00,
2013-05-23 07:42:00,23.0,14.0,24.54,NW,316,0.0,1.0,70,-99.99,,,0.00,172.000000,,2013-05-23 14:42:00,
2013-05-23 07:52:00,25.0,14.0,24.53,NW,313,0.0,0.0,63,-99.99,,,-99.99,210.000000,,2013-05-23 14:52:00,
2013-05-23 08:01:00,26.0,15.0,24.53,WNW,294,0.0,1.0,61,-99.99,,,-99.99,169.000000,,2013-05-23 15:01:00,
2013-05-23 08:11:00,28.0,15.0,24.54,NW,320,0.0,1.0,59,-99.99,,,-99.99,206.000000,,2013-05-23 15:11:00,
2013-05-23 08:21:00,30.0,16.0,24.54,NNE,30,0.0,1.0,57,-99.99,,,-99.99,195.000000,,2013-05-23 15:21:00,
2013-05-23 08:32:00,32.0,16.0,24.54,NW,320,0.0,1.0,51,-99.99,,,0.00,318.000000,,2013-05-23 15:32:00,
2013-05-23 08:42:00,32.0,16.0,24.54,NW,320,0.0,1.0,51,-99.99,,,0.00,318.000000,,2013-05-23 15:42:00,
2013-05-23 08:53:00,34.0,16.0,24.54,SSE,153,0.0,2.0,48,-99.99,,,0.00,385.000000,,2013-05-23 15:53:00,
2013-05-23 09:03:00,37.0,15.0,24.54,SE,142,1.0,2.0,40,-99.99,,,0.00,413.000000,,2013-05-23 16:03:00,
2013-05-23 09:12:00,39.0,14.0,24.55,East,96,2.0,4.0,35,-99.99,,,0.00,466.000000,,2013-05-23 16:12:00,
2013-05-23 09:22:00,40.0,11.0,24.55,SE,141,2.0,3.0,30,-99.99,,,0.00,420.000000,,2013-05-23 16:22:00,
2013-05-23 09:33:00,41.0,11.0,24.55,WSW,256,2.0,4.0,29,-99.99,,,0.00,466.000000,,2013-05-23 16:33:00,
2013-05-23 09:42:00,41.0,12.0,24.54,SW,232,2.0,6.0,30,-99.99,,,0.00,509.000000,,2013-05-23 16:42:00,
2013-05-23 09:52:00,43.0,10.0,24.54,WNW,291,1.0,4.0,26,-99.99,,,0.00,580.000000,,2013-05-23 16:52:00,
2013-05-23 10:03:00,43.0,9.0,24.55,NW,325,1.0,4.0,25,-99.99,,,0.00,628.000000,,2013-05-23 17:03:00,
2013-05-23 10:11:00,43.0,9.0,24.55,NW,304,2.0,7.0,24,-99.99,,,0.00,660.000000,,2013-05-23 17:11:00,
2013-05-23 10:22:00,43.0,10.0,24.54,South,177,2.0,6.0,25,-99.99,,,0.00,686.000000,,2013-05-23 17:22:00,
2013-05-23 10:33:00,45.0,11.0,24.55,West,261,2.0,4.0,25,-99.99,,,0.00,679.000000,,2013-05-23 17:33:00,
2013-05-23 10:42:00,45.0,11.0,24.55,West,261,2.0,4.0,25,-99.99,,,0.00,679.000000,,2013-05-23 17:42:00,
2013-05-23 10:52:00,45.0,12.0,24.54,SW,224,2.0,7.0,26,-99.99,,,0.00,547.000000,,2013-05-23 17:52:00,
2013-05-23 11:01:00,44.0,12.0,24.55,WNW,283,2.0,5.0,27,-99.99,,,0.00,673.000000,,2013-05-23 18:01:00,
2013-05-23 11:11:00,45.0,13.0,24.56,WSW,257,2.0,6.0,27,-99.99,,,0.00,864.000000,,2013-05-23 18:11:00,
2013-05-23 11:21:00,45.0,12.0,24.56,North,353,2.0,4.0,25,-99.99,,,0.00,577.000000,,2013-05-23 18:21:00,
2013-05-23 11:32:00,45.0,12.0,24.55,West,270,2.0,5.0,26,-99.99,,,0.00,754.000000,,2013-05-23 18:32:00,
2013-05-23 11:42:00,45.0,14.0,24.55,WSW,246,2.0,6.0,28,-99.99,,,0.00,551.000000,,2013-05-23 18:42:00,
2013-05-23 11:52:00,45.0,14.0,24.56,WSW,251,2.0,5.0,28,-99.99,,,0.00,338.000000,,2013-05-23 18:52:00,
2013-05-23 12:01:00,43.0,14.0,24.56,SW,223,2.0,5.0,30,-99.99,,,0.00,355.000000,,2013-05-23 19:01:00,
2013-05-23 12:11:00,44.0,15.0,24.56,WSW,247,2.0,6.0,30,-99.99,,,0.00,540.000000,,2013-05-23 19:11:00,
2013-05-23 12:21:00,45.0,13.0,24.55,SW,227,2.0,6.0,27,-99.99,,,0.00,877.000000,,2013-05-23 19:21:00,
2013-05-23 12:32:00,47.0,16.0,24.57,West,264,3.0,8.0,28,-99.99,,,0.00,984.000000,,2013-05-23 19:32:00,
2013-05-23 12:41:00,47.0,15.0,24.57,SSW,202,3.0,6.0,27,-99.99,,,0.00,422.000000,,2013-05-23 19:41:00,
2013-05-23 12:52:00,49.0,16.0,24.56,SW,224,3.0,7.0,26,-99.99,,,0.00,1084.000000,,2013-05-23 19:52:00,
2013-05-23 13:02:00,49.0,16.0,24.56,SW,224,3.0,7.0,26,-99.99,,,0.00,1084.000000,,2013-05-23 20:02:00,
2013-05-23 13:11:00,50.0,14.0,24.57,West,272,2.0,6.0,24,-99.99,,,0.00,912.000000,,2013-05-23 20:11:00,
2013-05-23 13:21:00,49.0,15.0,24.58,SW,216,3.0,5.0,25,-99.99,,,0.00,501.000000,,2013-05-23 20:21:00,
2013-05-23 13:32:00,48.0,14.0,24.58,WNW,286,3.0,6.0,25,-99.99,,,-99.99,757.000000,,2013-05-23 20:32:00,
2013-05-23 13:41:00,48.0,14.0,24.58,WNW,286,3.0,6.0,25,-99.99,,,-99.99,757.000000,,2013-05-23 20:41:00,
2013-05-23 13:51:00,49.0,15.0,24.59,WNW,284,3.0,6.0,26,-99.99,,,0.00,745.000000,,2013-05-23 20:51:00,
2013-05-23 14:01:00,49.0,15.0,24.59,WNW,284,3.0,6.0,26,-99.99,,,0.00,745.000000,,2013-05-23 21:01:00,
2013-05-23 14:11:00,49.0,15.0,24.59,WNW,284,3.0,6.0,26,-99.99,,,0.00,745.000000,,2013-05-23 21:11:00,
2013-05-23 14:21:00,47.0,16.0,24.58,West,266,3.0,8.0,28,-99.99,,,0.00,364.000000,,2013-05-23 21:21:00,
2013-05-23 14:32:00,47.0,16.0,24.57,West,263,2.0,6.0,29,-99.99,,,0.00,666.000000,,2013-05-23 21:32:00,
2013-05-23 14:43:00,49.0,17.0,24.58,West,260,3.0,7.0,28,-99.99,,,0.00,792.000000,,2013-05-23 21:43:00,
2013-05-23 14:53:00,49.0,16.0,24.58,WNW,298,3.0,5.0,27,-99.99,,,0.00,834.000000,,2013-05-23 21:53:00,
2013-05-23 15:00:00,52.0,18.0,24.60,SSW,209,3.0,6.0,26,-99.99,,,0.00,887.000000,,2013-05-23 22:00:00,
2013-05-23 15:02:00,50.0,17.0,24.59,WNW,282,3.0,5.0,27,-99.99,,,0.00,701.000000,,2013-05-23 22:02:00,
2013-05-23 15:12:00,49.0,17.0,24.59,WSW,249,3.0,8.0,28,-99.99,,,0.00,702.000000,,2013-05-23 22:12:00,
2013-05-23 15:22:00,51.0,19.0,24.58,WSW,246,3.0,7.0,28,-99.99,,,-99.99,946.000000,,2013-05-23 22:22:00,
2013-05-23 15:33:00,52.0,19.0,24.59,WSW,248,3.0,7.0,27,-99.99,,,0.00,969.000000,,2013-05-23 22:33:00,
2013-05-23 15:42:00,52.0,18.0,24.60,WSW,257,3.0,8.0,26,-99.99,,,0.00,976.000000,,2013-05-23 22:42:00,
2013-05-23 15:52:00,52.0,18.0,24.60,SSW,209,3.0,6.0,26,-99.99,,,0.00,887.000000,,2013-05-23 22:52:00,
2013-05-23 16:31:00,51.0,22.0,24.60,SSW,210,2.0,6.0,32,-99.99,,,0.00,561.000000,,2013-05-23 23:31:00,
2013-05-23 16:42:00,51.0,22.0,24.60,SSW,210,2.0,6.0,32,-99.99,,,0.00,561.000000,,2013-05-23 23:42:00,
2013-05-23 16:52:00,52.0,22.0,24.61,SW,235,2.0,6.0,31,-99.99,,,0.00,613.000000,,2013-05-23 23:52:00,
2013-05-23 17:01:00,52.0,22.0,24.61,SW,235,2.0,6.0,31,-99.99,,,0.00,613.000000,,2013-05-24 00:01:00,
2013-05-23 17:12:00,49.0,21.0,24.60,West,259,3.0,7.0,32,-99.99,,,0.00,379.000000,,2013-05-24 00:12:00,
2013-05-23 17:21:00,50.0,21.0,24.60,SW,216,3.0,10.0,31,-99.99,,,0.00,696.000000,,2013-05-24 00:21:00,
2013-05-23 17:31:00,52.0,23.0,24.60,SW,219,3.0,6.0,32,-99.99,,,-99.99,634.000000,,2013-05-24 00:31:00,
2013-05-23 17:42:00,52.0,23.0,24.60,SW,219,3.0,6.0,32,-99.99,,,-99.99,634.000000,,2013-05-24 00:42:00,
2013-05-23 17:52:00,52.0,21.0,24.61,West,259,4.0,8.0,30,-99.99,,,0.00,628.000000,,2013-05-24 00:52:00,
2013-05-23 18:01:00,50.0,22.0,24.62,SSW,206,3.0,9.0,33,-99.99,,,0.00,491.000000,,2013-05-24 01:01:00,
2013-05-23 18:12:00,51.0,23.0,24.62,SW,227,2.0,6.0,33,-99.99,,,0.00,557.000000,,2013-05-24 01:12:00,
2013-05-23 18:22:00,52.0,21.0,24.62,WSW,253,2.0,5.0,29,-99.99,,,0.00,514.000000,,2013-05-24 01:22:00,
2013-05-23 18:32:00,51.0,21.0,24.61,WSW,256,2.0,6.0,30,-99.99,,,0.00,440.000000,,2013-05-24 01:32:00,
2013-05-23 18:41:00,51.0,21.0,24.61,WSW,256,2.0,6.0,30,-99.99,,,0.00,440.000000,,2013-05-24 01:41:00,
2013-05-23 18:52:00,50.0,21.0,24.62,WSW,242,2.0,4.0,31,-99.99,,,0.00,173.000000,,2013-05-24 01:52:00,
2013-05-23 19:01:00,50.0,21.0,24.62,WSW,242,2.0,4.0,31,-99.99,,,0.00,173.000000,,2013-05-24 02:01:00,
2013-05-23 19:11:00,49.0,20.0,24.62,West,279,1.0,5.0,32,-99.99,,,0.00,72.000000,,2013-05-24 02:11:00,
2013-05-23 19:21:00,48.0,20.0,24.62,WSW,240,1.0,4.0,33,-99.99,,,0.00,46.000000,,2013-05-24 02:21:00,
2013-05-23 19:32:00,47.0,23.0,24.62,WSW,255,1.0,4.0,38,-99.99,,,0.00,30.000000,,2013-05-24 02:32:00,
2013-05-23 19:42:00,47.0,23.0,24.62,WSW,255,1.0,4.0,38,-99.99,,,0.00,30.000000,,2013-05-24 02:42:00,
2013-05-23 19:52:00,46.0,21.0,24.62,SW,220,1.0,3.0,37,-99.99,,,0.00,28.000000,,2013-05-24 02:52:00,
2013-05-23 20:02:00,46.0,23.0,24.62,SSW,195,1.0,2.0,40,-99.99,,,0.00,28.000000,,2013-05-24 03:02:00,
2013-05-23 20:11:00,45.0,25.0,24.62,WNW,285,0.0,3.0,44,-99.99,,,0.00,30.000000,,2013-05-24 03:11:00,
2013-05-23 20:21:00,45.0,25.0,24.63,North,-999,0.0,0.0,46,-99.99,,,0.00,18.000000,,2013-05-24 03:21:00,
2013-05-23 20:33:00,42.0,27.0,24.63,West,275,0.0,1.0,54,-99.99,,,0.00,11.000000,,2013-05-24 03:33:00,
2013-05-23 20:42:00,42.0,27.0,24.63,West,275,0.0,1.0,54,-99.99,,,0.00,11.000000,,2013-05-24 03:42:00,
2013-05-23 20:53:00,39.0,28.0,24.62,West,268,0.0,1.0,63,-99.99,,,0.00,5.000000,,2013-05-24 03:53:00,
2013-05-23 21:03:00,39.0,28.0,24.62,West,268,0.0,1.0,63,-99.99,,,0.00,5.000000,,2013-05-24 04:03:00,
2013-05-23 21:12:00,38.0,28.0,24.63,NW,317,0.0,1.0,66,-99.99,,,0.00,2.000000,,2013-05-24 04:12:00,
2013-05-23 21:22:00,37.0,27.0,24.64,WSW,242,0.0,1.0,68,-99.99,,,0.00,1.000000,,2013-05-24 04:22:00,
2013-05-23 21:33:00,35.0,27.0,24.63,WSW,244,0.0,1.0,74,-99.99,,,0.00,0.000000,,2013-05-24 04:33:00,
2013-05-23 21:42:00,35.0,27.0,24.63,WSW,244,0.0,1.0,74,-99.99,,,0.00,0.000000,,2013-05-24 04:42:00,
2013-05-23 21:52:00,34.0,27.0,24.62,WNW,293,0.0,1.0,74,-99.99,,,0.00,0.000000,,2013-05-24 04:52:00,
2013-05-23 22:02:00,33.0,26.0,24.64,WSW,237,0.0,1.0,75,-99.99,,,0.00,0.000000,,2013-05-24 05:02:00,
2013-05-23 22:12:00,32.0,25.0,24.64,SW,217,0.0,0.0,76,-99.99,,,0.00,0.000000,,2013-05-24 05:12:00,
2013-05-23 22:22:00,31.0,24.0,24.64,West,259,0.0,1.0,75,-99.99,,,0.00,0.000000,,2013-05-24 05:22:00,
2013-05-23 22:32:00,30.0,24.0,24.64,SW,227,0.0,1.0,77,-99.99,,,0.00,0.000000,,2013-05-24 05:32:00,
2013-05-23 22:42:00,30.0,24.0,24.64,SW,227,0.0,1.0,77,-99.99,,,0.00,0.000000,,2013-05-24 05:42:00,
2013-05-23 22:52:00,29.0,23.0,24.66,WSW,253,0.0,1.0,79,-99.99,,,0.00,0.000000,,2013-05-24 05:52:00,
2013-05-23 23:01:00,29.0,23.0,24.66,WSW,253,0.0,1.0,79,-99.99,,,0.00,0.000000,,2013-05-24 06:01:00,
2013-05-23 23:12:00,28.0,23.0,24.66,West,259,0.0,1.0,80,-99.99,,,0.00,0.000000,,2013-05-24 06:12:00,
2013-05-23 23:21:00,28.0,22.0,24.66,SSW,204,0.0,1.0,80,-99.99,,,0.00,0.000000,,2013-05-24 06:21:00,
2013-05-23 23:32:00,27.0,22.0,24.65,West,269,0.0,0.0,81,-99.99,,,0.00,0.000000,,2013-05-24 06:32:00,
2013-05-23 23:41:00,27.0,22.0,24.66,SSW,213,0.0,1.0,82,-99.99,,,0.00,0.000000,,2013-05-24 06:41:00,
2013-05-23 23:52:00,27.0,22.0,24.66,West,269,0.0,1.0,83,-99.99,,,0.00,0.000000,,2013-05-24 06:52:00,